Time,TemperatureF,DewpointF,PressureIn,WindDirection,WindDirectionDegrees,WindSpeedMPH,WindSpeedGustMPH,Humidity,HourlyPrecipIn,Conditions,Clouds,dailyrainin,SolarRadiationWatts/m^2,SoftwareType,DateUTC
2013-08-26 00:02:00,68.0,41.0,-100.00,West,280,4.0,17.0,37,0.00,,,0.00,0.000000,,2013-08-26 06:02:00,
2013-08-26 00:12:00,68.0,41.0,-100.00,West,280,4.0,17.0,37,0.00,,,0.00,0.000000,,2013-08-26 06:12:00,
2013-08-26 00:42:00,63.0,40.0,-100.00,NW,321,0.0,8.0,42,0.00,,,0.00,0.000000,,2013-08-26 06:42:00,
2013-08-26 00:52:00,63.0,40.0,-100.00,NW,321,0.0,8.0,42,0.00,,,0.00,0.000000,,2013-08-26 06:52:00,
2013-08-26 01:02:00,63.0,40.0,-100.00,NW,321,0.0,8.0,42,0.00,,,0.00,0.000000,,2013-08-26 07:02:00,
2013-08-26 01:11:00,63.0,40.0,-100.00,NW,321,0.0,8.0,42,0.00,,,0.00,0.000000,,2013-08-26 07:11:00,
2013-08-26 01:42:00,61.0,40.0,-100.00,West,279,4.0,6.0,46,0.00,,,0.00,0.000000,,2013-08-26 07:42:00,
2013-08-26 01:52:00,61.0,40.0,-100.00,West,279,4.0,6.0,46,0.00,,,0.00,0.000000,,2013-08-26 07:52:00,
2013-08-26 02:02:00,61.0,40.0,-100.00,West,279,4.0,6.0,46,0.00,,,0.00,0.000000,,2013-08-26 08:02:00,
2013-08-26 02:11:00,61.0,40.0,-100.00,West,279,4.0,6.0,46,0.00,,,0.00,0.000000,,2013-08-26 08:11:00,
2013-08-26 02:42:00,61.0,41.0,-100.00,West,260,4.0,6.0,47,0.00,,,0.00,0.000000,,2013-08-26 08:42:00,
2013-08-26 02:52:00,61.0,41.0,-100.00,West,260,4.0,6.0,47,0.00,,,0.00,0.000000,,2013-08-26 08:52:00,
2013-08-26 03:02:00,61.0,41.0,-100.00,West,260,4.0,6.0,47,0.00,,,0.00,0.000000,,2013-08-26 09:02:00,
2013-08-26 03:11:00,61.0,41.0,-100.00,West,260,4.0,6.0,47,0.00,,,0.00,0.000000,,2013-08-26 09:11:00,
2013-08-26 03:43:00,61.0,40.0,-100.00,West,271,6.0,9.0,46,0.00,,,0.00,0.000000,,2013-08-26 09:43:00,
2013-08-26 03:53:00,61.0,40.0,-100.00,West,271,6.0,9.0,46,0.00,,,0.00,0.000000,,2013-08-26 09:53:00,
2013-08-26 04:03:00,61.0,40.0,-100.00,West,271,6.0,9.0,46,0.00,,,0.00,0.000000,,2013-08-26 10:03:00,
2013-08-26 04:12:00,61.0,40.0,-100.00,West,271,6.0,9.0,46,0.00,,,0.00,0.000000,,2013-08-26 10:12:00,
2013-08-26 04:42:00,61.0,39.0,-100.00,West,271,6.0,8.0,44,0.00,,,0.00,0.000000,,2013-08-26 10:42:00,
2013-08-26 04:52:00,61.0,39.0,-100.00,West,271,6.0,8.0,44,0.00,,,0.00,0.000000,,2013-08-26 10:52:00,
2013-08-26 05:02:00,61.0,39.0,-100.00,West,271,6.0,8.0,44,0.00,,,0.00,0.000000,,2013-08-26 11:02:00,
2013-08-26 05:12:00,61.0,39.0,-100.00,West,271,6.0,8.0,44,0.00,,,0.00,0.000000,,2013-08-26 11:12:00,
2013-08-26 05:42:00,61.0,40.0,-100.00,NW,304,3.0,7.0,46,0.00,,,0.00,0.000000,,2013-08-26 11:42:00,
2013-08-26 05:52:00,61.0,40.0,-100.00,NW,304,3.0,7.0,46,0.00,,,0.00,0.000000,,2013-08-26 11:52:00,
2013-08-26 06:01:00,61.0,40.0,-100.00,NW,304,3.0,7.0,46,0.00,,,0.00,0.000000,,2013-08-26 12:01:00,
2013-08-26 06:12:00,61.0,40.0,-100.00,NW,304,3.0,7.0,46,0.00,,,0.00,0.000000,,2013-08-26 12:12:00,
2013-08-26 06:42:00,62.0,40.0,-100.00,West,280,4.0,9.0,44,0.00,,,0.00,0.000000,,2013-08-26 12:42:00,
2013-08-26 06:52:00,62.0,40.0,-100.00,West,280,4.0,9.0,44,0.00,,,0.00,0.000000,,2013-08-26 12:52:00,
2013-08-26 07:02:00,62.0,40.0,-100.00,West,280,4.0,9.0,44,0.00,,,0.00,0.000000,,2013-08-26 13:02:00,
2013-08-26 07:11:00,62.0,40.0,-100.00,West,280,4.0,9.0,44,0.00,,,0.00,0.000000,,2013-08-26 13:11:00,
2013-08-26 07:42:00,63.0,40.0,-100.00,West,276,3.0,7.0,43,0.00,,,0.00,7.000000,,2013-08-26 13:42:00,
2013-08-26 07:52:00,63.0,40.0,-100.00,West,276,3.0,7.0,43,0.00,,,0.00,7.000000,,2013-08-26 13:52:00,
2013-08-26 08:02:00,63.0,40.0,-100.00,West,276,3.0,7.0,43,0.00,,,0.00,7.000000,,2013-08-26 14:02:00,
2013-08-26 08:11:00,63.0,40.0,-100.00,West,276,3.0,7.0,43,0.00,,,0.00,7.000000,,2013-08-26 14:11:00,
2013-08-26 08:42:00,64.0,43.0,-100.00,West,259,4.0,6.0,47,0.00,,,0.00,67.000000,,2013-08-26 14:42:00,
2013-08-26 08:52:00,64.0,43.0,-100.00,West,259,4.0,6.0,47,0.00,,,0.00,67.000000,,2013-08-26 14:52:00,
2013-08-26 09:01:00,64.0,43.0,-100.00,West,259,4.0,6.0,47,0.00,,,0.00,67.000000,,2013-08-26 15:01:00,
2013-08-26 09:12:00,64.0,43.0,-100.00,West,259,4.0,6.0,47,0.00,,,0.00,67.000000,,2013-08-26 15:12:00,
2013-08-26 09:15:00,67.0,44.0,-100.00,West,268,4.0,7.0,43,0.00,,,0.00,192.000000,,2013-08-26 15:15:00,
2013-08-26 09:59:00,67.0,44.0,-100.00,West,268,4.0,7.0,43,0.00,,,0.00,192.000000,,2013-08-26 15:59:00,
2013-08-26 10:10:00,67.0,44.0,-100.00,West,268,4.0,7.0,43,0.00,,,0.00,192.000000,,2013-08-26 16:10:00,
2013-08-26 10:48:00,71.0,40.0,-100.00,NW,312,4.0,17.0,33,0.00,,,0.00,295.000000,,2013-08-26 16:48:00,
2013-08-26 10:59:00,71.0,40.0,-100.00,NW,312,4.0,17.0,33,0.00,,,0.00,295.000000,,2013-08-26 16:59:00,
2013-08-26 11:06:00,71.0,40.0,-100.00,NW,312,4.0,17.0,33,0.00,,,0.00,295.000000,,2013-08-26 17:06:00,
2013-08-26 11:12:00,71.0,40.0,-100.00,NW,312,4.0,17.0,33,0.00,,,0.00,295.000000,,2013-08-26 17:12:00,
2013-08-26 11:43:00,75.0,37.0,-100.00,SSE,157,4.0,14.0,25,0.00,,,0.00,589.000000,,2013-08-26 17:43:00,
2013-08-26 11:53:00,75.0,37.0,-100.00,SSE,157,4.0,14.0,25,0.00,,,0.00,589.000000,,2013-08-26 17:53:00,
2013-08-26 12:01:00,75.0,37.0,-100.00,SSE,157,4.0,14.0,25,0.00,,,0.00,589.000000,,2013-08-26 18:01:00,
2013-08-26 12:12:00,75.0,37.0,-100.00,SSE,157,4.0,14.0,25,0.00,,,0.00,589.000000,,2013-08-26 18:12:00,
2013-08-26 12:42:00,79.0,33.0,-100.00,SE,137,6.0,15.0,19,0.00,,,0.00,753.000000,,2013-08-26 18:42:00,
2013-08-26 12:52:00,79.0,33.0,-100.00,SE,137,6.0,15.0,19,0.00,,,0.00,753.000000,,2013-08-26 18:52:00,
2013-08-26 13:01:00,79.0,33.0,-100.00,SE,137,6.0,15.0,19,0.00,,,0.00,753.000000,,2013-08-26 19:01:00,
2013-08-26 13:11:00,79.0,33.0,-100.00,SE,137,6.0,15.0,19,0.00,,,0.00,753.000000,,2013-08-26 19:11:00,
2013-08-26 14:43:00,77.0,34.0,-100.00,West,270,5.0,15.0,21,0.00,,,0.00,436.000000,,2013-08-26 20:43:00,
2013-08-26 14:52:00,77.0,34.0,-100.00,West,270,5.0,15.0,21,0.00,,,0.00,436.000000,,2013-08-26 20:52:00,
2013-08-26 15:01:00,77.0,34.0,-100.00,West,270,5.0,15.0,21,0.00,,,0.00,436.000000,,2013-08-26 21:01:00,
2013-08-26 15:11:00,77.0,34.0,-100.00,West,270,5.0,15.0,21,0.00,,,0.00,436.000000,,2013-08-26 21:11:00,
2013-08-26 15:15:00,79.0,34.0,-100.00,East,96,8.0,13.0,20,0.00,,,0.00,691.000000,,2013-08-26 21:15:00,
2013-08-26 15:44:00,79.0,34.0,-100.00,East,96,8.0,13.0,20,0.00,,,0.00,691.000000,,2013-08-26 21:44:00,
2013-08-26 15:55:00,79.0,34.0,-100.00,East,96,8.0,13.0,20,0.00,,,0.00,691.000000,,2013-08-26 21:55:00,
2013-08-26 16:07:00,79.0,34.0,-100.00,East,96,8.0,13.0,20,0.00,,,0.00,691.000000,,2013-08-26 22:07:00,
2013-08-26 16:42:00,75.0,40.0,-100.00,WNW,295,6.0,17.0,28,0.00,,,-99.99,508.000000,,2013-08-26 22:42:00,
2013-08-26 16:53:00,75.0,40.0,-100.00,WNW,295,6.0,17.0,28,0.00,,,-99.99,508.000000,,2013-08-26 22:53:00,
2013-08-26 17:03:00,75.0,40.0,-100.00,WNW,295,6.0,17.0,28,0.00,,,-99.99,508.000000,,2013-08-26 23:03:00,
2013-08-26 17:12:00,75.0,40.0,-100.00,WNW,295,6.0,17.0,28,0.00,,,-99.99,508.000000,,2013-08-26 23:12:00,
2013-08-26 17:42:00,75.0,37.0,-100.00,WNW,286,5.0,13.0,25,0.00,,,0.00,265.000000,,2013-08-26 23:42:00,
2013-08-26 17:52:00,75.0,37.0,-100.00,WNW,286,5.0,13.0,25,0.00,,,0.00,265.000000,,2013-08-26 23:52:00,
2013-08-26 18:01:00,75.0,37.0,-100.00,WNW,286,5.0,13.0,25,0.00,,,0.00,265.000000,,2013-08-27 00:01:00,
2013-08-26 18:11:00,75.0,37.0,-100.00,WNW,286,5.0,13.0,25,0.00,,,0.00,265.000000,,2013-08-27 00:11:00,
2013-08-26 18:42:00,73.0,36.0,-100.00,SE,146,2.0,12.0,26,0.00,,,0.00,120.000000,,2013-08-27 00:42:00,
2013-08-26 18:52:00,73.0,36.0,-100.00,SE,146,2.0,12.0,26,0.00,,,0.00,120.000000,,2013-08-27 00:52:00,
2013-08-26 19:01:00,73.0,36.0,-100.00,SE,146,2.0,12.0,26,0.00,,,0.00,120.000000,,2013-08-27 01:01:00,
2013-08-26 19:12:00,73.0,36.0,-100.00,SE,146,2.0,12.0,26,0.00,,,0.00,120.000000,,2013-08-27 01:12:00,
2013-08-26 19:42:00,70.0,40.0,-100.00,NE,34,2.0,8.0,34,0.00,,,0.00,84.000000,,2013-08-27 01:42:00,
2013-08-26 19:52:00,70.0,40.0,-100.00,NE,34,2.0,8.0,34,0.00,,,0.00,84.000000,,2013-08-27 01:52:00,
2013-08-26 20:02:00,70.0,40.0,-100.00,NE,34,2.0,8.0,34,0.00,,,0.00,84.000000,,2013-08-27 02:02:00,
2013-08-26 20:12:00,70.0,40.0,-100.00,NE,34,2.0,8.0,34,0.00,,,0.00,84.000000,,2013-08-27 02:12:00,
2013-08-26 20:42:00,69.0,37.0,-100.00,SSW,205,4.0,10.0,31,0.00,,,0.00,6.000000,,2013-08-27 02:42:00,
2013-08-26 20:52:00,69.0,37.0,-100.00,SSW,205,4.0,10.0,31,0.00,,,0.00,6.000000,,2013-08-27 02:52:00,
2013-08-26 21:02:00,69.0,37.0,-100.00,SSW,205,4.0,10.0,31,0.00,,,0.00,6.000000,,2013-08-27 03:02:00,
2013-08-26 21:12:00,69.0,37.0,-100.00,SSW,205,4.0,10.0,31,0.00,,,0.00,6.000000,,2013-08-27 03:12:00,
2013-08-26 21:15:00,68.0,38.0,-100.00,West,278,5.0,12.0,33,0.00,,,0.00,0.000000,,2013-08-27 03:15:00,
2013-08-26 21:45:00,68.0,38.0,-100.00,West,278,5.0,12.0,33,0.00,,,0.00,0.000000,,2013-08-27 03:45:00,
2013-08-26 21:58:00,68.0,38.0,-100.00,West,278,5.0,12.0,33,0.00,,,0.00,0.000000,,2013-08-27 03:58:00,
2013-08-26 22:08:00,68.0,38.0,-100.00,West,278,5.0,12.0,33,0.00,,,0.00,0.000000,,2013-08-27 04:08:00,
2013-08-26 22:47:00,67.0,39.0,-100.00,West,277,3.0,10.0,36,0.00,,,0.00,0.000000,,2013-08-27 04:47:00,
2013-08-26 22:54:00,67.0,39.0,-100.00,West,277,3.0,10.0,36,0.00,,,0.00,0.000000,,2013-08-27 04:54:00,
2013-08-26 23:05:00,67.0,39.0,-100.00,West,277,3.0,10.0,36,0.00,,,0.00,0.000000,,2013-08-27 05:05:00,
2013-08-26 23:13:00,67.0,39.0,-100.00,West,277,3.0,10.0,36,0.00,,,0.00,0.000000,,2013-08-27 05:13:00,
2013-08-26 23:43:00,65.0,39.0,-100.00,North,356,3.0,9.0,39,0.00,,,0.00,0.000000,,2013-08-27 05:43:00,
2013-08-26 23:52:00,65.0,39.0,-100.00,North,356,3.0,9.0,39,0.00,,,0.00,0.000000,,2013-08-27 05:52:00,